Wrangell Airport
PAWG : now visible

Airfield :











YOU CAN JOIN US ON...

 
LOGIN :

Register | Disclaimer

   EN    FR    IT 

 









Legend :    VFR   Marginal VFR   IFR   Intensive IFR   Very Intensive IFR
Visi :
Ceiling :
>= 8 km
>= 3000ft
5 to 8 km
1000 to 3000 ft
1500m to 5 km
500 to 1000 ft
800 to 1500m
200 to 500 ft
< 800m
< 200 ft
Symbols :   Thunderstorms  Fog  Heavy snow  Heavy precipitations  Wind > 20 kt






- Airport Elevation : 49 ft
- IATA code : WRG


PAWG - Wrangell

CURRENT METAR :
  • 250355Z VRB05KT 10SM SCT020 OVC025 15/14 A3016

EXPIRED METARs :
  • 250255Z VRB04KT 10SM -RA SCT020 OVC025 15/14 A3016
  • 250155Z 08011G14KT 10SM -RA BKN022 OVC030 15/14 A3015

TAF PAWG
Valid from the 25 at 00:00 until the 26 at 00:00 UTC


242336Z 2500/2524 10007KT 6SM -RA BR OVC040
TEMPO 2500/2504 4SM -RA BR OVC025
FM250900 12004KT 4SM -RA BR OVC025
FM251500 11006KT P6SM VCSH BKN020 OVC030 AMD LTD TO CLD VIS AND WIND 2506/2515
PAZA FIR / North America



MET'MAP, your aeronautical weather chart ! - Copyright ORBIFLY December 2007 - Disclaimer

ORBIFLY MET'MAP TEAM :

Programming & Development : Alexandra Zaïnal
Concept & original design : Baudouin d'Aumeries
Assistance for programming : Marc-Olivier Méhu
Technical & hardware support : Manuel Goepfert

Contact : metmap@orbifly.com




SOURCES & CREDITS :

   NOAA       Earth
Advisory